Погода в Зимстане

Россия / Республика Коми     61°15′33″N   53°51′40″E
темп.,
°C
ветер,
м/с
пор.,
м/с
влажн.,
%
обл.,
%
осадки,
мм/ч
давл.,
гПа
погр.,
м
18 января, пн
пн1800:00−24з259739 0.0 1013140
03:00−22з279669 0.0 1014210
06:00−22юз2597100 0.0 1014172
09:00−20юз2598100 0.3 1015244
12:00−19зюз2395100 0.3 1016313
15:00−22з129899 0.3 101720
18:00−25зюз019925 0.0 101820
21:00−25ю119931 0.0 101920
19 января, вт
вт1900:00−25ю129923 0.0 102020
03:00−25ю229935 0.0 102020
06:00−25ю229955 0.0 101925
09:00−25ю239866 0.0 101972
12:00−21ю259676 0.0 1018231
15:00−22ю249888 0.0 1018113
18:00−22ю2498100 0.0 1016103
21:00−21ю2598100 0.0 1016139
20 января, ср
ср2000:00−21ю2398100 0.0 101583
03:00−22ю2298100 0.1 101336
06:00−22ю229793 0.0 101253
09:00−22ююз129785 0.1 101158
12:00−19ююз129686 0.1 1010147
15:00−19ююз119891 0.3 100920
18:00−19юз1298100 0.2 100920
21:00−19з129897 0.3 100925
21 января, чт
чт2100:00−19з129889 0.1 100821
03:00−19з129893 0.3 100832
06:00−20зсз229996 0.1 100848
09:00−21зсз239996 0.1 100888
12:00−19зсз249594 0.1 1009265
15:00−20зсз129997 0.2 100934
18:00−22зсз1299100 0.1 100920
21:00−24с119996 0.1 100920
22 января, пт
пт2200:00−26всв1110093 0.0 100819
03:00−27св2210096 0.1 100840
06:00−29св25100100 0.0 100994
09:00−29ссв25100100 0.0 1010134
12:00−27ссв3597100 0.0 1012230
15:00−30ссв269797 0.0 1014171
18:00−31ссв259614 0.0 1018116
21:00−32ссв23977 0.0 102068